STARLINK-38225, 100194

Orbit data source: Space-Track

STARLINK-38225, 100194 is a payload satellite owned by SpaceX/Seattle (US) in SSO that was launched on Sat, 01 Aug 2026 UTC launched from the Air Force Western Test Range (AFWTR). Payload-class satellites include a variety of spacecraft equipped with specific instruments for various scientific and technological missions. These include communications satellites like Starlink; space stations such as the ISS; scientific satellites like the Hubble; Earth observation satellites from companies like Planet Labs, Umbra, and HawkEye 360; GPS; miniature CubeSats for education and research; and military/defense satellites.

Not visible in the next 10 days
Identifier
100194, 2026-175R
Orbit
SSO
Country
Flag of USUS
Related business
Manufacturer
SpaceX/Seattle
Mission
Operational spacecraft
Bus & Motor
STARLINK V2MO, Unknown motor
Mass
575 kg wet, ~530 kg dry
Launch date (UTC)
2026-08-01 (2 months ago)
Launch vehicle
Unknown
Launch site
Air Force Western Test Range (AFWTR)
Object type
Payload
Rocket body
Debris
Shape & HBR
BOX + PAN, 17.7 m
Radar Cross Section
Large (>1 m²)

Expand to show TLE details & history
Last TLE update: 8 hours ago

TLE from 8 hours ago
0 STARLINK-38225
1 A0194U 26175R   26263.88484063 -.00351788  00000-0 -49724-2 0  9997
2 A0194  97.2842 106.2911 0000792  89.4683 270.6664 15.57668891  9235
Epoch: 2026-09-20T21:14Z
TLE epoch observation values (Epoch: 2026-09-20T21:14:10.230Z)
Latitude
0.00002°
Longitude
147.97586°
Altitude
397.544 km
Speed
7.672 km/s
True Right ascension
07h 05m 09s
True Declination
0° 00' 00"
Sunlit
Object was in daylight at epoch
Visualization orbit readout
Latitude
Unknown
Longitude
Unknown
Altitude
Unknown
Speed
Unknown
Apparent Right ascension
Unknown
Apparent Declination
Unknown
Sunlit
N/A
Visualization observer readout
Local Sidereal Time
22:07:32
Azimuth
Unknown
Elevation
Unknown
Doppler factor
Unknown
Orbital elements
Apogee altitude
391.852 km
Perigee altitude
390.78 km
Semi-major axis
6,769.453 km
Eccentricity
0.00008
Inclination
97.2842°
RAAN
106.2911°
Arg. of periapsis
89.4683°
True anomaly
270.65732°
Mean anomaly
270.6664°
Eccentric anomaly
270.66186°
Mean motion
3.89684 °/min
Orbital period
92.38 mins
BSTAR
-0.0049724
Loading maneuver chart data...
Computing Atmospheric mass density...
Loading historical data...
Loading historical data...
Loading historical data...
Loading historical data...
Loading historical data...
Loading historical data...
Loading historical data...

Documentation

Showing up to 5 results
|